Bennett, CO

7:18 AM MDT on August 28, 2016 (GMT -0600)
Front Range

Weather History for KFTG - January, 2013

Change the Weather History Date:

Tuesday, January 22, 2013

  Actual Average (KDEN) Record (KDEN)
Temperature  
Mean Temperature 46 °F 31 °F  
Max Temperature 64 °F 44 °F 68 °F (1981)
Min Temperature 28 °F 17 °F -14 °F (1962)
Degree Days  
Heating Degree Days 19 34  
Month to date heating degree days 753  
Since 1 July heating degree days 3221  
Cooling Degree Days 0 0  
Month to date cooling degree days 0  
Year to date cooling degree days 0  
Moisture  
Dew Point 4 °F    
Average Humidity 23    
Maximum Humidity 48    
Minimum Humidity 7    
Precipitation  
Precipitation 0.00 in 0.01 in 0.47 in (1968)
Month to date precipitation 0.29  
Year to date precipitation 0.29  
Snow  
Snow 0.00 in - - ()
Month to date snowfall  
Since 1 July snowfall  
Snow Depth -    
Sea Level Pressure  
Sea Level Pressure 30.08 in    
Wind  
Wind Speed 10 mph (SW)    
Max Wind Speed 16 mph    
Max Gust Speed -    
Visibility 10 miles    
Events      
T = Trace of Precipitation, MM = Missing Value Source: NWS Daily Summary

Daily Weather History Graph

Daily Weather History Graph

Search for Another Location

Airport or City:

Trip Planner

Search our weather history database for the weather conditions in past years. The results will help you decide how hot, cold, wet, or windy it might be!

Date:

Astronomy

Jan. 22, 2013 Rise Set
Actual Time 7:13 AM MST 5:06 PM MST
Civil Twilight 6:44 AM MST 5:35 PM MST
Nautical Twilight 6:11 AM MST 6:08 PM MST
Astronomical Twilight 5:39 AM MST 6:40 PM MST
Moon 1:31 PM MST (1/22) 3:37 AM MST (1/22)
Length of Visible Light 10h 50m
Length of Day
9h 52m
Waxing Gibbous, 83% of the Moon is Illuminated
Jan 22
Waxing Gibbous
Jan 26
Full
Feb 3
Last Quarter
Feb 10
New
Feb 17
First Quarter

Hourly Weather History & Observations

Time (MST) Temp. Windchill Dew Point Humidity Pressure Visibility Wind Dir Wind Speed Gust Speed Precip Events Conditions
12:05 AM 37.4 °F 30.3 °F 8.6 °F 30% 30.06 in 10.0 mi SW 10.4 mph - N/A   Clear
12:26 AM 41.0 °F 34.7 °F 6.8 °F 24% 30.06 in 10.0 mi SW 10.4 mph - N/A   Clear
12:46 AM 41.0 °F 34.7 °F 5.0 °F 23% 30.06 in 10.0 mi SSW 10.4 mph - N/A   Clear
1:05 AM 41.0 °F 34.3 °F 5.0 °F 23% 30.06 in 10.0 mi SW 11.5 mph - N/A   Clear
1:26 AM 41.0 °F 35.2 °F 3.2 °F 21% 30.06 in 10.0 mi SW 9.2 mph - N/A   Clear
1:45 AM 39.2 °F 32.5 °F 6.8 °F 26% 30.05 in 10.0 mi SW 10.4 mph - N/A   Clear
2:06 AM 41.0 °F 33.5 °F 5.0 °F 23% 30.05 in 10.0 mi SW 13.8 mph - N/A   Clear
2:26 AM 41.0 °F 32.8 °F 5.0 °F 23% 30.04 in 10.0 mi SW 16.1 mph - N/A   Clear
2:46 AM 41.0 °F 33.5 °F 5.0 °F 23% 30.04 in 10.0 mi SW 13.8 mph - N/A   Clear
3:06 AM 41.0 °F 33.5 °F 5.0 °F 23% 30.03 in 10.0 mi SW 13.8 mph - N/A   Clear
3:26 AM 42.8 °F 35.8 °F 3.2 °F 19% 30.03 in 10.0 mi SSW 13.8 mph - N/A   Clear
3:46 AM 41.0 °F 33.1 °F 3.2 °F 21% 30.03 in 10.0 mi SW 15.0 mph - N/A   Clear
4:05 AM 42.8 °F 36.2 °F 1.4 °F 18% 30.02 in 10.0 mi SW 12.7 mph - N/A   Clear
4:26 AM 41.0 °F 33.9 °F 3.2 °F 21% 30.01 in 10.0 mi SW 12.7 mph - N/A   Clear
4:46 AM 39.2 °F 32.0 °F 3.2 °F 22% 30.02 in 10.0 mi SW 11.5 mph - N/A   Clear
5:06 AM 39.2 °F 33.0 °F 3.2 °F 22% 30.02 in 10.0 mi SW 9.2 mph - N/A   Clear
5:26 AM 37.4 °F 32.8 °F 3.2 °F 24% 30.03 in 10.0 mi SW 5.8 mph - N/A   Clear
5:46 AM 37.4 °F 30.3 °F 5.0 °F 26% 30.04 in 10.0 mi West 10.4 mph - N/A   Clear
6:06 AM 37.4 °F 33.8 °F 3.2 °F 24% 30.06 in 10.0 mi West 4.6 mph - N/A   Clear
6:23 AM 28.4 °F 22.2 °F 8.6 °F 43% 30.06 in 10.0 mi South 5.8 mph - N/A   Clear
6:46 AM 33.8 °F 26.4 °F 5.0 °F 30% 30.08 in 10.0 mi SSW 9.2 mph - N/A   Clear
7:05 AM 28.4 °F 19.1 °F 8.6 °F 43% 30.09 in 10.0 mi SSW 10.4 mph - N/A   Clear
7:26 AM 37.4 °F 30.3 °F 1.4 °F 22% 30.09 in 10.0 mi WSW 10.4 mph - N/A   Clear
7:46 AM 37.4 °F 32.1 °F 1.4 °F 22% 30.10 in 10.0 mi WSW 6.9 mph - N/A   Clear
8:04 AM 39.2 °F 34.2 °F 1.4 °F 21% 30.11 in 10.0 mi WSW 6.9 mph - N/A   Clear
8:50 AM 44.6 °F 43.1 °F 6.8 °F 21% 30.11 in 50.0 mi South 3.5 mph - N/A   Partly Cloudy
9:48 AM 53.6 °F - -0.4 °F 11% 30.12 in 50.0 mi SW 5.8 mph - N/A   Partly Cloudy
10:55 AM 59.0 °F - -0.4 °F 9% 30.12 in 50.0 mi West 6.9 mph - N/A   Partly Cloudy
11:55 AM 62.6 °F - -4.0 °F 7% 30.10 in 50.0 mi Calm Calm - N/A   Partly Cloudy
12:50 PM 62.6 °F - -2.2 °F 7% 30.08 in 50.0 mi West 11.5 mph - N/A   Scattered Clouds
1:50 PM 64.4 °F - -2.2 °F 7% 30.07 in 50.0 mi WNW 6.9 mph - N/A   Partly Cloudy
2:50 PM 64.4 °F - 1.4 °F 8% 30.07 in 50.0 mi NW 9.2 mph - N/A   Partly Cloudy
3:48 PM 60.8 °F - 8.6 °F 13% 30.09 in 50.0 mi East 5.8 mph - N/A   Scattered Clouds
9:26 PM 32.0 °F 23.6 °F 14.0 °F 48% 30.16 in 10.0 mi South 10.4 mph - N/A   Clear
9:46 PM 33.8 °F 27.0 °F 10.4 °F 38% 30.16 in 10.0 mi SSW 8.1 mph - N/A   Clear
10:06 PM 32.0 °F 25.6 °F 14.0 °F 48% 30.16 in 10.0 mi South 6.9 mph - N/A   Clear
10:25 PM 35.6 °F 28.6 °F 6.8 °F 30% 30.15 in 10.0 mi SW 9.2 mph - N/A   Clear
10:45 PM 44.6 °F 39.2 °F 1.4 °F 17% 30.16 in 10.0 mi SSW 10.4 mph - N/A   Clear
11:06 PM 42.8 °F 35.8 °F -0.4 °F 16% 30.16 in 10.0 mi SSW 13.8 mph - N/A   Clear
11:26 PM 44.6 °F 38.8 °F 1.4 °F 17% 30.16 in 10.0 mi SSW 11.5 mph - N/A   Clear
11:46 PM 41.0 °F 33.5 °F 3.2 °F 21% 30.16 in 10.0 mi SSW 13.8 mph - N/A   Clear